Ames, IA

12:03 AM CDT on July 22, 2017 (GMT -0500)
Ames Municipal

Weather History for KAMW - February, 2013

Change the Weather History Date:

Friday, February 15, 2013

  Actual Average Record
Temperature  
Mean Temperature 22 °F 24 °F  
Max Temperature 28 °F 34 °F 55 °F (1999)
Min Temperature 15 °F 15 °F -9 °F (2007)
Degree Days  
Heating Degree Days 43 41  
Month to date heating degree days 561 637  
Since 1 July heating degree days 4463 4792  
Cooling Degree Days 0 0  
Month to date cooling degree days 0 0  
Year to date cooling degree days 0 0  
Moisture  
Dew Point 11 °F    
Average Humidity 68    
Maximum Humidity 80    
Minimum Humidity 55    
Precipitation  
Precipitation 0.00 in 0.04 in 0.85 in (1992)
Month to date precipitation 0.40 0.50  
Sea Level Pressure  
Sea Level Pressure 30.32 in    
Wind  
Wind Speed 12 mph (NNW)    
Max Wind Speed 20 mph    
Max Gust Speed 28 mph    
Visibility 10 miles    
Events      
T = Trace of Precipitation, MM = Missing Value Source: NWS Daily Summary

Daily Weather History Graph

Daily Weather History Graph

Search for Another Location

Airport or City:

Trip Planner

Search our weather history database for the weather conditions in past years. The results will help you decide how hot, cold, wet, or windy it might be!

Date:

Astronomy

Feb. 15, 2013 Rise Set
Actual Time 7:09 AM CST 5:47 PM CST
Civil Twilight 6:41 AM CST 6:16 PM CST
Nautical Twilight 6:08 AM CST 6:49 PM CST
Astronomical Twilight 5:36 AM CST 7:21 PM CST
Moon 9:40 AM CST (2/15) 11:56 PM CST (2/15)
Length of Visible Light 11h 35m
Length of Day
10h 37m
Waxing Crescent, 30% of the Moon is Illuminated
Feb 15
Waxing Crescent
Feb 17
First Quarter
Feb 25
Full
Mar 4
Last Quarter
Mar 11
New

Hourly Weather History & Observations

Time (CST) Temp. Windchill Dew Point Humidity Pressure Visibility Wind Dir Wind Speed Gust Speed Precip Events Conditions
12:53 AM 21.0 °F 8.1 °F 12.9 °F 71% 30.22 in 10.0 mi NNW 13.8 mph - N/A   Clear
1:53 AM 19.9 °F 6.2 °F 12.0 °F 71% 30.25 in 10.0 mi NNW 15.0 mph - N/A   Clear
2:53 AM 19.0 °F 5.6 °F 10.9 °F 71% 30.26 in 10.0 mi NW 13.8 mph - N/A   Clear
3:53 AM 18.0 °F 3.6 °F 10.0 °F 71% 30.27 in 10.0 mi NNW 15.0 mph - N/A   Clear
4:53 AM 17.1 °F 5.0 °F 9.0 °F 71% 30.29 in 10.0 mi NW 10.4 mph - N/A   Clear
5:53 AM 17.1 °F 5.8 °F 8.1 °F 68% 30.30 in 10.0 mi NW 9.2 mph - N/A   Clear
6:53 AM 15.1 °F 3.3 °F 7.0 °F 70% 30.31 in 10.0 mi NW 9.2 mph - N/A   Clear
7:53 AM 16.0 °F 2.9 °F 6.1 °F 65% 30.33 in 10.0 mi NW 11.5 mph - N/A   Clear
8:53 AM 17.1 °F 3.6 °F 7.0 °F 65% 30.34 in 10.0 mi NW 12.7 mph - N/A   Clear
9:53 AM 19.9 °F 7.9 °F 9.0 °F 62% 30.35 in 10.0 mi NW 11.5 mph - N/A   Scattered Clouds
10:53 AM 21.0 °F 8.6 °F 9.0 °F 60% 30.35 in 10.0 mi NNW 12.7 mph - N/A   Clear
11:53 AM 23.0 °F 10.1 °F 12.0 °F 63% 30.35 in 10.0 mi NW 15.0 mph - N/A   Partly Cloudy
12:53 PM 26.1 °F 15.6 °F 12.0 °F 55% 30.33 in 10.0 mi North 11.5 mph 19.6 mph N/A   Partly Cloudy
1:53 PM 26.1 °F 15.6 °F 14.0 °F 60% 30.32 in 10.0 mi NNW 11.5 mph 20.7 mph N/A   Scattered Clouds
2:53 PM 26.1 °F 14.0 °F 14.0 °F 60% 30.32 in 10.0 mi NW 15.0 mph 20.7 mph N/A   Mostly Cloudy
3:53 PM 27.0 °F 14.3 °F 12.9 °F 56% 30.32 in 10.0 mi North 17.3 mph - N/A   Mostly Cloudy
4:53 PM 25.0 °F 14.2 °F 12.9 °F 60% 30.33 in 10.0 mi NNW 11.5 mph - N/A   Clear
5:53 PM 24.1 °F 12.5 °F 12.9 °F 62% 30.33 in 10.0 mi NNW 12.7 mph - N/A   Clear
6:53 PM 21.9 °F 11.0 °F 14.0 °F 72% 30.35 in 10.0 mi NNW 10.4 mph - N/A   Clear
7:53 PM 19.9 °F 10.1 °F 12.9 °F 74% 30.35 in 10.0 mi NNW 8.1 mph - N/A   Clear
8:53 PM 19.0 °F 6.8 °F 12.0 °F 74% 30.36 in 10.0 mi North 11.5 mph - N/A   Clear
9:53 PM 18.0 °F 6.9 °F 12.0 °F 78% 30.35 in 10.0 mi NW 9.2 mph - N/A   Clear
10:53 PM 17.1 °F 3.6 °F 10.9 °F 77% 30.34 in 10.0 mi NNW 12.7 mph - N/A   Clear
11:53 PM 16.0 °F 3.6 °F 10.9 °F 81% 30.33 in 10.0 mi NNW 10.4 mph - N/A   Clear